This is the latest recevied weather packets stored in our database for station/object GCEMA. If no packets are shown the sender has not sent any weather packets the latest 10 day(s).
| Time | Temp. | Humidity | Pressure | Rain* | Wind** | Luminosity | Snow |
|---|---|---|---|---|---|---|---|
| 1777491781 | 18.33° C | - | 1011.2 hPa | 0 mm | 0 m/s | - | - |
| 1777491598 | 17.22° C | - | 1011.2 hPa | 0 mm | 0 m/s | - | - |
| 1777491419 | 17.22° C | - | 1011.2 hPa | 0 mm | 0 m/s | - | - |
| 1777491239 | 17.78° C | - | 1011.2 hPa | 0 mm | 0 m/s | - | - |
| 1777491060 | 17.22° C | - | 1011.1 hPa | 0 mm | 0 m/s | - | - |
| 1777490880 | 17.78° C | - | 1011.1 hPa | 0 mm | 0 m/s | - | - |
| 1777490698 | 17.78° C | - | 1011.1 hPa | 0 mm | 0 m/s | - | - |
| 1777490518 | 18.33° C | - | 1011.1 hPa | 0 mm | 0 m/s | - | - |
| 1777490339 | 17.78° C | - | 1011.1 hPa | 0 mm | 0 m/s | - | - |
| 1777490159 | 17.78° C | - | 1011 hPa | 0 mm | 0 m/s | - | - |
| 1777489797 | 17.78° C | - | 1011 hPa | 0 mm | 0 m/s | - | - |
| 1777489617 | 18.33° C | - | 1011 hPa | 0 mm | 0 m/s | - | - |
| 1777489438 | 17.22° C | - | 1011 hPa | 0 mm | 0 m/s | - | - |
| 1777489258 | 18.33° C | - | 1011 hPa | 0 mm | 0 m/s | - | - |
| 1777489079 | 17.78° C | - | 1011.1 hPa | 0 mm | 0 m/s | - | - |
| 1777488897 | 17.78° C | - | 1011.1 hPa | 0 mm | 0 m/s | - | - |
| 1777488717 | 17.22° C | - | 1011 hPa | 0 mm | 0 m/s | - | - |
| 1777488358 | 16.67° C | - | 1011.1 hPa | 0 mm | 0 m/s | - | - |
| 1777488178 | 17.22° C | - | 1011.1 hPa | 0 mm | 0 m/s | - | - |
| 1777487996 | 17.22° C | - | 1011.1 hPa | 0 mm | 0 m/s | - | - |
| 1777487637 | 16.67° C | - | 1011 hPa | 0 mm | 0 m/s | - | - |
| 1777487278 | 17.22° C | - | 1010.9 hPa | 0 mm | 0 m/s | - | - |
| 1777486915 | 17.22° C | - | 1010.6 hPa | 0 mm | 0 m/s | - | - |
| 1777486735 | 16.67° C | - | 1010.8 hPa | 0 mm | 0 m/s | - | - |
| 1777486556 | 17.22° C | - | 1010.6 hPa | 0 mm | 0 m/s | - | - |
* Rain latest hour (hover to see other rain measurements)
** Current wind speed in m/s (hover to see current wind gust speed)